Tracking 30969 objects as of 5-Jul-2025
HD Live streaming from Space Station
objects crossing your sky now

SL-12 R/B(2)

Track SL-12 R/B(2) now!


NORAD ID: 14951
Int'l Code: 1984-031F
Perigee: 35,970.2 km
Apogee: 36,093.1 km
Inclination: 9.7 °
Period: 1,448.3 minutes
Semi major axis: 42402 km
RCS: 2.1273 m2 (large)
Launch date: March 29, 1984
Source: Commonwealth of Independent States (former USSR) (CIS)
Launch site: TYURATAM MISSILE AND SPACE COMPLEX (TTMTR)

Note: This is a ROCKET BODY
Your satellite tracking list
Your tracking list is empty




NASA's NSSDC Master Catalog

Two Line Element Set (TLE):
1 14951U 84031F   25185.62795869 -.00000043  00000-0  00000+0 0  9996
2 14951   9.7376 314.8937 0014492 243.2789 138.6542  0.99428990116348
Source of the keplerian elements: AFSPC